| time (UTC) | temp F | wind direction | speed MPH | gust MPH | rain 1hr in | rain 24hr in | rain mn in | humidity % | barometer mb |
| 20260906085539 | 68 | 202 | 1.0 | 2.0 | 0.00 | 0.09 | 0.00 | 94 | 1011.4 |
| 20260906085039 | 68 | 223 | 0.0 | 2.0 | 0.00 | 0.09 | 0.00 | 93 | 1011.4 |
| 20260906084554 | 69 | 223 | 1.0 | 2.0 | 0.00 | 0.09 | 0.00 | 94 | 1011.4 |
| 20260906084043 | 69 | 223 | 0.0 | 1.0 | 0.00 | 0.09 | 0.00 | 94 | 1011.3 |
| 20260906083542 | 69 | 0 | 0.0 | 2.0 | 0.00 | 0.09 | 0.00 | 93 | 1011.2 |
| 20260906083101 | 69 | 0 | 0.0 | 2.0 | 0.00 | 0.09 | 0.00 | 94 | 1011.3 |
| 20260906082540 | 69 | 223 | 1.0 | 2.0 | 0.00 | 0.09 | 0.00 | 94 | 1011.2 |
| 20260906082040 | 69 | 223 | 0.0 | 2.0 | 0.00 | 0.09 | 0.00 | 93 | 1011.2 |
| 20260906081557 | 69 | 0 | 0.0 | 0.0 | 0.00 | 0.09 | 0.00 | 94 | 1011.0 |
| 20260906081040 | 69 | 0 | 0.0 | 2.0 | 0.00 | 0.09 | 0.00 | 94 | 1010.9 |
| 20260906080540 | 69 | 0 | 0.0 | 2.0 | 0.00 | 0.09 | 0.00 | 93 | 1010.7 |
| 20260906075539 | 69 | 202 | 0.0 | 2.0 | 0.00 | 0.09 | 0.00 | 93 | 1010.8 |
| 20260906075039 | 69 | 0 | 0.0 | 2.0 | 0.00 | 0.09 | 0.00 | 93 | 1010.8 |
| 20260906074558 | 69 | 0 | 0.0 | 2.0 | 0.00 | 0.09 | 0.00 | 93 | 1010.9 |
| 20260906074039 | 69 | 193 | 0.0 | 2.0 | 0.00 | 0.09 | 0.00 | 93 | 1010.9 |
| 20260906073540 | 69 | 0 | 0.0 | 2.0 | 0.00 | 0.09 | 0.00 | 94 | 1010.8 |
| 20260906073053 | 69 | 0 | 0.0 | 2.0 | 0.00 | 0.09 | 0.00 | 93 | 1010.8 |
| 20260906072540 | 69 | 0 | 0.0 | 2.0 | 0.00 | 0.09 | 0.00 | 93 | 1010.8 |
| 20260906072040 | 69 | 193 | 0.0 | 2.0 | 0.00 | 0.09 | 0.00 | 93 | 1011.0 |
| 20260906071555 | 69 | 0 | 0.0 | 2.0 | 0.00 | 0.09 | 0.00 | 93 | 1011.0 |
| 20260906071040 | 69 | 238 | 0.0 | 2.0 | 0.00 | 0.09 | 0.00 | 93 | 1011.0 |
| 20260906070540 | 69 | 238 | 1.0 | 2.0 | 0.00 | 0.09 | 0.00 | 93 | 1011.0 |
| 20260906070053 | 69 | 233 | 1.0 | 2.0 | 0.00 | 0.09 | 0.00 | 93 | 1010.9 |
| 20260906065540 | 69 | 215 | 1.0 | 2.0 | 0.00 | 0.09 | 0.00 | 93 | 1010.9 |
| 20260906065039 | 69 | 159 | 0.0 | 2.0 | 0.00 | 0.09 | 0.00 | 93 | 1010.9 |
| 20260906064557 | 69 | 0 | 0.0 | 2.0 | 0.00 | 0.09 | 0.00 | 93 | 1010.9 |
| 20260906064039 | 69 | 159 | 1.0 | 2.0 | 0.00 | 0.09 | 0.00 | 93 | 1011.0 |
| 20260906063540 | 69 | 223 | 0.0 | 2.0 | 0.00 | 0.09 | 0.00 | 93 | 1011.1 |
| 20260906063057 | 69 | 223 | 1.0 | 1.0 | 0.00 | 0.09 | 0.00 | 93 | 1011.2 |
| 20260906062540 | 70 | 223 | 0.0 | 2.0 | 0.00 | 0.09 | 0.00 | 93 | 1011.2 |
| 20260906062039 | 70 | 247 | 0.0 | 2.0 | 0.00 | 0.09 | 0.00 | 93 | 1011.1 |
| 20260906061554 | 70 | 247 | 0.0 | 2.0 | 0.00 | 0.09 | 0.00 | 93 | 1011.1 |
| 20260906061039 | 69 | 0 | 0.0 | 2.0 | 0.00 | 0.09 | 0.00 | 93 | 1011.1 |
| 20260906060540 | 70 | 0 | 0.0 | 2.0 | 0.00 | 0.09 | 0.00 | 93 | 1011.2 |
| 20260906060057 | 69 | 247 | 0.0 | 2.0 | 0.00 | 0.09 | 0.00 | 92 | 1011.1 |
| 20260906055543 | 70 | 0 | 0.0 | 2.0 | 0.00 | 0.09 | 0.00 | 92 | 1011.4 |
| 20260906055040 | 70 | 247 | 0.0 | 2.0 | 0.00 | 0.09 | 0.00 | 92 | 1011.4 |
| 20260906054608 | 70 | 0 | 0.0 | 2.0 | 0.00 | 0.09 | 0.00 | 93 | 1011.5 |
| 20260906054040 | 70 | 0 | 0.0 | 2.0 | 0.00 | 0.09 | 0.00 | 92 | 1011.5 |
| 20260906053539 | 70 | 0 | 0.0 | 2.0 | 0.00 | 0.09 | 0.00 | 92 | 1011.6 |
| 20260906053054 | 70 | 246 | 0.0 | 2.0 | 0.00 | 0.09 | 0.00 | 92 | 1011.6 |
| 20260906052540 | 70 | 0 | 0.0 | 1.0 | 0.00 | 0.09 | 0.00 | 92 | 1011.7 |
| 20260906052044 | 70 | 246 | 1.0 | 1.0 | 0.00 | 0.09 | 0.00 | 92 | 1011.7 |
| 20260906051603 | 70 | 246 | 0.0 | 2.0 | 0.00 | 0.09 | 0.00 | 92 | 1011.8 |
| 20260906051040 | 71 | 333 | 0.0 | 2.0 | 0.00 | 0.09 | 0.00 | 92 | 1011.8 |
| 20260906050540 | 71 | 333 | 0.0 | 2.0 | 0.00 | 0.09 | 0.00 | 92 | 1011.9 |
| 20260906050105 | 71 | 333 | 0.0 | 2.0 | 0.00 | 0.09 | 0.00 | 92 | 1011.9 |
| 20260906045540 | 71 | 0 | 0.0 | 0.0 | 0.00 | 0.09 | 0.00 | 92 | 1011.8 |
| 20260906045041 | 71 | 0 | 0.0 | 0.0 | 0.00 | 0.09 | 0.00 | 92 | 1011.9 |
| 20260906044602 | 71 | 0 | 0.0 | 2.0 | 0.00 | 0.09 | 0.00 | 92 | 1011.9 |
| 20260906044039 | 71 | 0 | 0.0 | 2.0 | 0.00 | 0.09 | 0.00 | 91 | 1011.9 |
| 20260906043542 | 71 | 0 | 0.0 | 2.0 | 0.00 | 0.09 | 0.00 | 91 | 1012.0 |
| 20260906043104 | 71 | 333 | 0.0 | 2.0 | 0.00 | 0.09 | 0.00 | 92 | 1012.0 |
| 20260906042540 | 71 | 333 | 1.0 | 1.0 | 0.00 | 0.09 | 0.00 | 92 | 1012.0 |
| 20260906042040 | 71 | 281 | 0.0 | 1.0 | 0.00 | 0.09 | 0.00 | 91 | 1012.1 |
| 20260906041555 | 71 | 281 | 1.0 | 2.0 | 0.00 | 0.09 | 0.00 | 91 | 1012.0 |
| 20260906041040 | 72 | 263 | 0.0 | 2.0 | 0.00 | 0.09 | 0.00 | 91 | 1012.0 |
| 20260906040540 | 72 | 263 | 0.0 | 2.0 | 0.00 | 0.09 | 0.00 | 90 | 1012.1 |
| 20260906040105 | 73 | 263 | 0.0 | 2.0 | 0.00 | 0.09 | 0.00 | 88 | 1012.2 |
| 20260906035541 | 73 | 263 | 0.0 | 2.0 | 0.00 | 0.09 | 0.09 | 89 | 1012.2 |
| 20260906035040 | 72 | 0 | 0.0 | 2.0 | 0.00 | 0.09 | 0.09 | 90 | 1012.1 |
| 20260906034553 | 72 | 0 | 0.0 | 2.0 | 0.00 | 0.09 | 0.09 | 90 | 1012.1 |
| 20260906034039 | 72 | 258 | 0.0 | 2.0 | 0.00 | 0.09 | 0.09 | 90 | 1012.2 |
| 20260906033539 | 73 | 258 | 0.0 | 2.0 | 0.00 | 0.09 | 0.09 | 90 | 1012.2 |
| 20260906033051 | 73 | 0 | 0.0 | 2.0 | 0.00 | 0.09 | 0.09 | 89 | 1012.2 |
| 20260906032540 | 73 | 0 | 0.0 | 2.0 | 0.00 | 0.09 | 0.09 | 91 | 1012.3 |
| 20260906032040 | 72 | 275 | 0.0 | 2.0 | 0.00 | 0.09 | 0.09 | 92 | 1012.3 |
| 20260906031551 | 72 | 0 | 0.0 | 2.0 | 0.00 | 0.09 | 0.09 | 93 | 1012.3 |
| 20260906031041 | 72 | 0 | 0.0 | 2.0 | 0.00 | 0.09 | 0.09 | 93 | 1012.3 |
| 20260906030540 | 72 | 278 | 0.0 | 2.0 | 0.00 | 0.09 | 0.09 | 92 | 1012.3 |
| 20260906025540 | 72 | 0 | 0.0 | 2.0 | 0.00 | 0.09 | 0.09 | 92 | 1012.1 |
| 20260906025040 | 72 | 278 | 0.0 | 2.0 | 0.00 | 0.09 | 0.09 | 92 | 1012.0 |
| 20260906024558 | 72 | 278 | 1.0 | 2.0 | 0.00 | 0.09 | 0.09 | 92 | 1012.0 |
| 20260906024039 | 72 | 278 | 0.0 | 2.0 | 0.00 | 0.09 | 0.09 | 92 | 1012.0 |
| 20260906023540 | 72 | 278 | 0.0 | 2.0 | 0.00 | 0.09 | 0.09 | 92 | 1012.0 |
| 20260906023054 | 72 | 278 | 0.0 | 2.0 | 0.00 | 0.09 | 0.09 | 92 | 1012.0 |
| 20260906022539 | 72 | 278 | 0.0 | 2.0 | 0.00 | 0.09 | 0.09 | 92 | 1012.0 |
| 20260906022039 | 72 | 278 | 1.0 | 1.0 | 0.00 | 0.09 | 0.09 | 92 | 1012.0 |
| 20260906021556 | 72 | 278 | 0.0 | 1.0 | 0.00 | 0.09 | 0.09 | 91 | 1012.1 |
| 20260906021041 | 73 | 250 | 1.0 | 1.0 | 0.00 | 0.09 | 0.09 | 91 | 1012.1 |
| 20260906020540 | 72 | 132 | 1.0 | 2.0 | 0.00 | 0.09 | 0.09 | 91 | 1012.1 |
| 20260906020059 | 73 | 132 | 0.0 | 2.0 | 0.00 | 0.09 | 0.09 | 91 | 1012.1 |
| 20260906015539 | 73 | 0 | 0.0 | 2.0 | 0.00 | 0.09 | 0.09 | 91 | 1012.0 |
| 20260906015040 | 73 | 132 | 0.0 | 2.0 | 0.00 | 0.09 | 0.09 | 91 | 1012.1 |
| 20260906014633 | 73 | 0 | 0.0 | 2.0 | 0.00 | 0.09 | 0.09 | 91 | 1012.1 |
| 20260906014039 | 73 | 0 | 0.0 | 2.0 | 0.00 | 0.09 | 0.09 | 90 | 1012.1 |
| 20260906013539 | 73 | 0 | 0.0 | 2.0 | 0.00 | 0.09 | 0.09 | 90 | 1012.1 |
| 20260906013101 | 73 | 157 | 0.0 | 2.0 | 0.00 | 0.09 | 0.09 | 91 | 1012.1 |
| 20260906012540 | 74 | 0 | 0.0 | 2.0 | 0.00 | 0.09 | 0.09 | 91 | 1012.1 |
| 20260906012042 | 74 | 155 | 0.0 | 2.0 | 0.00 | 0.09 | 0.09 | 91 | 1012.0 |
| 20260906011605 | 74 | 155 | 0.0 | 3.0 | 0.00 | 0.09 | 0.09 | 91 | 1012.0 |
| 20260906011039 | 74 | 163 | 1.0 | 3.0 | 0.00 | 0.09 | 0.09 | 92 | 1011.9 |
| 20260906010539 | 74 | 203 | 1.0 | 3.0 | 0.00 | 0.09 | 0.09 | 92 | 1011.8 |
| 20260906010057 | 74 | 193 | 1.0 | 3.0 | 0.00 | 0.09 | 0.09 | 92 | 1011.8 |
| 20260906005540 | 74 | 168 | 0.0 | 2.0 | 0.00 | 0.09 | 0.09 | 92 | 1011.9 |
| 20260906005039 | 74 | 168 | 0.0 | 2.0 | 0.00 | 0.09 | 0.09 | 92 | 1011.8 |
| 20260906004615 | 74 | 176 | 0.0 | 1.0 | 0.00 | 0.09 | 0.09 | 92 | 1011.8 |
| 20260906004041 | 74 | 176 | 0.0 | 3.0 | 0.00 | 0.09 | 0.09 | 92 | 1011.7 |
| 20260906003540 | 74 | 176 | 1.0 | 3.0 | 0.00 | 0.09 | 0.09 | 92 | 1011.5 |
| 20260906003112 | 74 | 191 | 1.0 | 2.0 | 0.00 | 0.09 | 0.09 | 92 | 1011.5 |
| 20260906002540 | 74 | 211 | 1.0 | 2.0 | 0.00 | 0.09 | 0.09 | 91 | 1011.4 |
| 20260906002040 | 75 | 259 | 1.0 | 2.0 | 0.00 | 0.09 | 0.09 | 91 | 1011.5 |
| 20260906001557 | 75 | 259 | 0.0 | 2.0 | 0.00 | 0.09 | 0.09 | 90 | 1011.4 |
| 20260906001039 | 75 | 259 | 0.0 | 2.0 | 0.00 | 0.09 | 0.09 | 90 | 1011.3 |
| 20260906000545 | 76 | 0 | 0.0 | 0.0 | 0.00 | 0.09 | 0.09 | 90 | 1011.2 |
| 20260906000056 | 76 | 0 | 0.0 | 2.0 | 0.00 | 0.09 | 0.09 | 89 | 1011.1 |
| 20260905235542 | 76 | 0 | 0.0 | 2.0 | 0.00 | 0.09 | 0.09 | 89 | 1011.0 |
| 20260905235040 | 76 | 352 | 0.0 | 1.0 | 0.00 | 0.09 | 0.09 | 89 | 1011.0 |
| 20260905234554 | 76 | 0 | 0.0 | 0.0 | 0.00 | 0.09 | 0.09 | 88 | 1010.8 |
| 20260905234040 | 77 | 0 | 0.0 | 1.0 | 0.00 | 0.09 | 0.09 | 88 | 1010.7 |
| 20260905233540 | 77 | 0 | 0.0 | 2.0 | 0.00 | 0.09 | 0.09 | 87 | 1010.7 |
| 20260905233059 | 78 | 352 | 0.0 | 2.0 | 0.00 | 0.09 | 0.09 | 86 | 1010.7 |
| 20260905232539 | 78 | 352 | 0.0 | 1.0 | 0.00 | 0.09 | 0.09 | 85 | 1010.7 |
| 20260905232040 | 78 | 0 | 0.0 | 2.0 | 0.00 | 0.09 | 0.09 | 85 | 1010.7 |
| 20260905231554 | 78 | 0 | 0.0 | 2.0 | 0.00 | 0.09 | 0.09 | 85 | 1010.7 |
| 20260905231039 | 78 | 93 | 0.0 | 2.0 | 0.00 | 0.09 | 0.09 | 85 | 1010.8 |
| 20260905230539 | 78 | 93 | 1.0 | 2.0 | 0.00 | 0.09 | 0.09 | 85 | 1010.9 |
| 20260905230109 | 78 | 168 | 0.0 | 2.0 | 0.00 | 0.09 | 0.09 | 85 | 1010.8 |
| 20260905225539 | 78 | 102 | 0.0 | 2.0 | 0.00 | 0.09 | 0.09 | 85 | 1010.9 |
| 20260905225041 | 78 | 98 | 1.0 | 2.0 | 0.00 | 0.09 | 0.09 | 85 | 1010.9 |
| 20260905224604 | 78 | 73 | 1.0 | 3.0 | 0.00 | 0.09 | 0.09 | 85 | 1010.9 |
| 20260905224040 | 79 | 182 | 0.0 | 3.0 | 0.00 | 0.09 | 0.09 | 84 | 1010.8 |
| 20260905223539 | 79 | 182 | 1.0 | 3.0 | 0.00 | 0.09 | 0.09 | 82 | 1010.7 |
| 20260905223101 | 80 | 113 | 1.0 | 3.0 | 0.00 | 0.09 | 0.09 | 80 | 1010.6 |
| 20260905222540 | 82 | 77 | 0.0 | 3.0 | 0.00 | 0.09 | 0.09 | 76 | 1010.5 |
| 20260905222039 | 82 | 346 | 1.0 | 3.0 | 0.00 | 0.09 | 0.09 | 71 | 1010.5 |
| 20260905221611 | 81 | 59 | 0.0 | 2.0 | 0.00 | 0.09 | 0.09 | 79 | 1010.5 |
| 20260905221040 | 81 | 44 | 1.0 | 2.0 | 0.00 | 0.09 | 0.09 | 79 | 1010.5 |
| 20260905220539 | 80 | 352 | 0.0 | 2.0 | 0.00 | 0.09 | 0.09 | 81 | 1010.6 |
| 20260905220057 | 80 | 352 | 0.0 | 2.0 | 0.00 | 0.09 | 0.09 | 82 | 1010.6 |
| 20260905215540 | 80 | 0 | 0.0 | 2.0 | 0.00 | 0.09 | 0.09 | 80 | 1010.7 |
| 20260905215039 | 80 | 352 | 0.0 | 2.0 | 0.00 | 0.09 | 0.09 | 80 | 1010.7 |
| 20260905214603 | 79 | 317 | 0.0 | 2.0 | 0.00 | 0.09 | 0.09 | 80 | 1010.7 |
| 20260905214040 | 79 | 317 | 0.0 | 2.0 | 0.00 | 0.09 | 0.09 | 84 | 1010.8 |
| 20260905213540 | 79 | 311 | 0.0 | 2.0 | 0.00 | 0.09 | 0.09 | 81 | 1010.9 |
| 20260905213102 | 78 | 311 | 1.0 | 2.0 | 0.00 | 0.09 | 0.09 | 81 | 1011.1 |
| 20260905212540 | 78 | 323 | 1.0 | 2.0 | 0.00 | 0.09 | 0.09 | 82 | 1011.3 |
| 20260905212039 | 78 | 290 | 0.0 | 2.0 | 0.00 | 0.09 | 0.09 | 85 | 1011.4 |
| 20260905211601 | 77 | 169 | 1.0 | 2.0 | 0.00 | 0.09 | 0.09 | 87 | 1011.3 |
| 20260905211039 | 77 | 0 | 0.0 | 3.0 | 0.00 | 0.09 | 0.09 | 87 | 1011.4 |
| 20260905210539 | 77 | 300 | 1.0 | 3.0 | 0.00 | 0.09 | 0.09 | 86 | 1011.5 |
| 20260905210057 | 77 | 295 | 0.0 | 2.0 | 0.00 | 0.09 | 0.09 | 86 | 1011.5 |
| 20260905205539 | 76 | 313 | 0.0 | 2.0 | 0.00 | 0.09 | 0.09 | 88 | 1011.5 |
| 20260905205039 | 76 | 0 | 0.0 | 2.0 | 0.00 | 0.09 | 0.09 | 87 | 1011.3 |
| 20260905204557 | 77 | 313 | 1.0 | 2.0 | 0.00 | 0.09 | 0.09 | 87 | 1011.4 |
| 20260905204040 | 77 | 304 | 1.0 | 2.0 | 0.00 | 0.09 | 0.09 | 85 | 1011.3 |
| 20260905203540 | 77 | 37 | 0.0 | 2.0 | 0.00 | 0.09 | 0.09 | 89 | 1011.2 |
| 20260905203056 | 76 | 0 | 0.0 | 2.0 | 0.00 | 0.09 | 0.09 | 88 | 1011.0 |
| 20260905202539 | 76 | 37 | 0.0 | 3.0 | 0.00 | 0.09 | 0.09 | 86 | 1010.9 |
| 20260905202039 | 77 | 352 | 1.0 | 3.0 | 0.00 | 0.09 | 0.09 | 86 | 1010.9 |
| 20260905201610 | 76 | 309 | 2.0 | 3.0 | 0.03 | 0.09 | 0.09 | 85 | 1010.8 |
| 20260905201039 | 76 | 286 | 2.0 | 3.0 | 0.09 | 0.09 | 0.09 | 85 | 1010.8 |
| 20260905200540 | 76 | 319 | 1.0 | 3.0 | 0.09 | 0.09 | 0.09 | 86 | 1010.9 |
| 20260905200054 | 76 | 5 | 2.0 | 3.0 | 0.09 | 0.09 | 0.09 | 85 | 1011.1 |
| 20260905195539 | 76 | 287 | 1.0 | 5.0 | 0.09 | 0.09 | 0.09 | 84 | 1011.0 |
| 20260905195040 | 75 | 285 | 2.0 | 5.0 | 0.09 | 0.09 | 0.09 | 85 | 1010.9 |
| 20260905194558 | 75 | 298 | 2.0 | 6.0 | 0.09 | 0.09 | 0.09 | 85 | 1011.1 |
| 20260905194042 | 75 | 336 | 1.0 | 6.0 | 0.09 | 0.09 | 0.09 | 86 | 1011.1 |
| 20260905193540 | 74 | 325 | 2.0 | 5.0 | 0.09 | 0.09 | 0.09 | 85 | 1011.1 |
| 20260905193112 | 74 | 352 | 1.0 | 10.0 | 0.09 | 0.09 | 0.09 | 84 | 1011.0 |
| 20260905192540 | 74 | 58 | 1.0 | 10.0 | 0.09 | 0.09 | 0.09 | 83 | 1011.1 |
| 20260905192042 | 76 | 125 | 4.0 | 10.0 | 0.09 | 0.09 | 0.09 | 77 | 1011.2 |
| 20260905191554 | 80 | 57 | 4.0 | 22.0 | 0.06 | 0.06 | 0.06 | 69 | 1010.9 |
| 20260905191039 | 84 | 158 | 9.0 | 26.0 | 0.00 | 0.00 | 0.00 | 59 | 1011.7 |
| 20260905190541 | 87 | 77 | 8.0 | 26.0 | 0.00 | 0.00 | 0.00 | 55 | 1012.1 |
| 20260905190058 | 93 | 58 | 10.0 | 25.0 | 0.00 | 0.00 | 0.00 | 49 | 1011.5 |
| 20260905185540 | 94 | 338 | 4.0 | 8.0 | 0.00 | 0.00 | 0.00 | 48 | 1011.0 |
| 20260905185040 | 95 | 335 | 3.0 | 10.0 | 0.00 | 0.00 | 0.00 | 48 | 1010.9 |
| 20260905184556 | 96 | 5 | 5.0 | 10.0 | 0.00 | 0.00 | 0.00 | 48 | 1010.8 |
| 20260905184039 | 96 | 5 | 5.0 | 11.0 | 0.00 | 0.00 | 0.00 | 46 | 1010.9 |
| 20260905183540 | 98 | 327 | 6.0 | 12.0 | 0.00 | 0.00 | 0.00 | 44 | 1010.9 |
| 20260905183058 | 98 | 322 | 6.0 | 12.0 | 0.00 | 0.00 | 0.00 | 46 | 1010.8 |
| 20260905182539 | 97 | 311 | 5.0 | 12.0 | 0.00 | 0.00 | 0.00 | 47 | 1010.8 |
| 20260905182039 | 97 | 352 | 5.0 | 12.0 | 0.00 | 0.00 | 0.00 | 48 | 1010.8 |
| 20260905181606 | 97 | 315 | 5.0 | 10.0 | 0.00 | 0.00 | 0.00 | 49 | 1010.9 |
| 20260905181040 | 97 | 49 | 6.0 | 9.0 | 0.00 | 0.00 | 0.00 | 47 | 1011.0 |
| 20260905180540 | 96 | 38 | 1.0 | 5.0 | 0.00 | 0.00 | 0.00 | 49 | 1011.2 |
| 20260905180104 | 95 | 14 | 4.0 | 7.0 | 0.00 | 0.00 | 0.00 | 51 | 1011.3 |
| 20260905175540 | 95 | 302 | 3.0 | 12.0 | 0.00 | 0.00 | 0.00 | 52 | 1011.5 |
| 20260905175040 | 95 | 360 | 5.0 | 12.0 | 0.00 | 0.00 | 0.00 | 50 | 1011.6 |
| 20260905174604 | 96 | 0 | 3.0 | 9.0 | 0.00 | 0.00 | 0.00 | 49 | 1011.8 |
| 20260905174039 | 96 | 311 | 4.0 | 7.0 | 0.00 | 0.00 | 0.00 | 51 | 1011.8 |
| 20260905173539 | 94 | 5 | 2.0 | 8.0 | 0.00 | 0.00 | 0.00 | 53 | 1012.0 |
| 20260905173054 | 94 | 310 | 5.0 | 8.0 | 0.00 | 0.00 | 0.00 | 52 | 1012.1 |
| 20260905172539 | 95 | 360 | 4.0 | 8.0 | 0.00 | 0.00 | 0.00 | 48 | 1012.2 |
| 20260905172039 | 96 | 238 | 3.0 | 8.0 | 0.00 | 0.00 | 0.00 | 50 | 1012.3 |
| 20260905171558 | 95 | 315 | 2.0 | 6.0 | 0.00 | 0.00 | 0.00 | 52 | 1012.3 |
| 20260905171044 | 95 | 20 | 3.0 | 9.0 | 0.00 | 0.00 | 0.00 | 51 | 1012.2 |
| 20260905170539 | 95 | 63 | 3.0 | 11.0 | 0.00 | 0.00 | 0.00 | 49 | 1012.3 |
| 20260905170055 | 96 | 298 | 5.0 | 11.0 | 0.00 | 0.00 | 0.00 | 49 | 1012.4 |
| 20260905165539 | 95 | 335 | 1.0 | 7.0 | 0.00 | 0.00 | 0.00 | 51 | 1012.6 |
| 20260905165038 | 95 | 349 | 4.0 | 7.0 | 0.00 | 0.00 | 0.00 | 51 | 1012.6 |
| 20260905164554 | 94 | 342 | 1.0 | 7.0 | 0.00 | 0.00 | 0.00 | 53 | 1012.7 |
| 20260905164039 | 94 | 315 | 4.0 | 9.0 | 0.00 | 0.00 | 0.00 | 52 | 1012.7 |
| 20260905163539 | 94 | 315 | 3.0 | 9.0 | 0.00 | 0.00 | 0.00 | 54 | 1012.8 |
| 20260905163101 | 94 | 309 | 1.0 | 4.0 | 0.00 | 0.00 | 0.00 | 54 | 1012.8 |
| 20260905162539 | 93 | 296 | 2.0 | 8.0 | 0.00 | 0.00 | 0.00 | 52 | 1012.9 |
| 20260905162040 | 94 | 333 | 3.0 | 8.0 | 0.00 | 0.00 | 0.00 | 54 | 1013.0 |
| 20260905161604 | 93 | 309 | 3.0 | 8.0 | 0.00 | 0.00 | 0.00 | 55 | 1013.1 |
| 20260905161040 | 93 | 240 | 3.0 | 8.0 | 0.00 | 0.00 | 0.00 | 57 | 1013.1 |
| 20260905160538 | 92 | 93 | 1.0 | 7.0 | 0.00 | 0.00 | 0.00 | 59 | 1013.1 |
| 20260905160057 | 92 | 238 | 3.0 | 7.0 | 0.00 | 0.00 | 0.00 | 59 | 1013.2 |
| 20260905155539 | 92 | 302 | 3.0 | 6.0 | 0.00 | 0.00 | 0.00 | 62 | 1013.3 |
| 20260905155039 | 92 | 211 | 3.0 | 5.0 | 0.00 | 0.00 | 0.00 | 58 | 1013.2 |
| 20260905154617 | 92 | 223 | 2.0 | 5.0 | 0.00 | 0.00 | 0.00 | 62 | 1013.2 |
| 20260905154041 | 91 | 228 | 1.0 | 7.0 | 0.00 | 0.00 | 0.00 | 61 | 1013.3 |
| 20260905153539 | 91 | 226 | 1.0 | 7.0 | 0.00 | 0.00 | 0.00 | 63 | 1013.3 |
| 20260905153058 | 90 | 213 | 2.0 | 7.0 | 0.00 | 0.00 | 0.00 | 63 | 1013.2 |
| 20260905152539 | 90 | 287 | 2.0 | 5.0 | 0.00 | 0.00 | 0.00 | 64 | 1013.3 |
| 20260905152039 | 90 | 313 | 2.0 | 7.0 | 0.00 | 0.00 | 0.00 | 65 | 1013.3 |
| 20260905151601 | 89 | 311 | 3.0 | 7.0 | 0.00 | 0.00 | 0.00 | 65 | 1013.3 |
| 20260905151040 | 89 | 313 | 3.0 | 9.0 | 0.00 | 0.00 | 0.00 | 67 | 1013.4 |
| 20260905150539 | 89 | 216 | 3.0 | 9.0 | 0.00 | 0.00 | 0.00 | 66 | 1013.5 |
| 20260905150055 | 89 | 220 | 2.0 | 8.0 | 0.00 | 0.00 | 0.00 | 66 | 1013.5 |
| 20260905145539 | 89 | 312 | 3.0 | 8.0 | 0.00 | 0.00 | 0.00 | 67 | 1013.5 |
| 20260905145039 | 88 | 273 | 1.0 | 5.0 | 0.00 | 0.00 | 0.00 | 68 | 1013.5 |
| 20260905144602 | 87 | 337 | 1.0 | 5.0 | 0.00 | 0.00 | 0.00 | 68 | 1013.5 |
| 20260905144038 | 88 | 271 | 3.0 | 5.0 | 0.00 | 0.00 | 0.00 | 68 | 1013.5 |
| 20260905143539 | 88 | 352 | 2.0 | 4.0 | 0.00 | 0.00 | 0.00 | 70 | 1013.6 |
| 20260905143054 | 87 | 190 | 1.0 | 4.0 | 0.00 | 0.00 | 0.00 | 69 | 1013.5 |
| 20260905142540 | 87 | 317 | 1.0 | 4.0 | 0.00 | 0.00 | 0.00 | 71 | 1013.6 |
| 20260905142043 | 86 | 309 | 2.0 | 5.0 | 0.00 | 0.00 | 0.00 | 71 | 1013.5 |
| 20260905141600 | 85 | 196 | 2.0 | 6.0 | 0.00 | 0.00 | 0.00 | 72 | 1013.5 |
| 20260905141038 | 86 | 223 | 1.0 | 7.0 | 0.00 | 0.00 | 0.00 | 71 | 1013.6 |
| 20260905140539 | 86 | 336 | 2.0 | 7.0 | 0.00 | 0.00 | 0.00 | 72 | 1013.5 |
| 20260905140105 | 85 | 233 | 3.0 | 7.0 | 0.00 | 0.00 | 0.00 | 72 | 1013.6 |
| 20260905135538 | 84 | 329 | 2.0 | 8.0 | 0.00 | 0.00 | 0.00 | 75 | 1013.6 |
| 20260905135038 | 85 | 305 | 4.0 | 9.0 | 0.00 | 0.00 | 0.00 | 74 | 1013.6 |
| 20260905134554 | 84 | 298 | 3.0 | 9.0 | 0.00 | 0.00 | 0.00 | 75 | 1013.5 |
| 20260905134040 | 83 | 306 | 3.0 | 7.0 | 0.00 | 0.00 | 0.00 | 75 | 1013.6 |
| 20260905133540 | 84 | 215 | 2.0 | 7.0 | 0.00 | 0.00 | 0.00 | 75 | 1013.6 |
| 20260905133100 | 83 | 236 | 3.0 | 7.0 | 0.00 | 0.00 | 0.00 | 75 | 1013.6 |
| 20260905132539 | 83 | 290 | 2.0 | 7.0 | 0.00 | 0.00 | 0.00 | 76 | 1013.7 |
| 20260905132039 | 83 | 244 | 2.0 | 7.0 | 0.00 | 0.00 | 0.00 | 77 | 1013.7 |
| 20260905131607 | 82 | 331 | 3.0 | 8.0 | 0.00 | 0.00 | 0.00 | 77 | 1013.7 |
| 20260905131039 | 82 | 205 | 2.0 | 8.0 | 0.00 | 0.00 | 0.00 | 77 | 1013.7 |
| 20260905130540 | 81 | 217 | 2.0 | 7.0 | 0.00 | 0.00 | 0.00 | 79 | 1013.9 |
| 20260905130057 | 81 | 242 | 1.0 | 6.0 | 0.00 | 0.00 | 0.00 | 79 | 1013.9 |
| 20260905125538 | 81 | 238 | 2.0 | 6.0 | 0.00 | 0.00 | 0.00 | 80 | 1013.9 |
| 20260905125038 | 80 | 275 | 3.0 | 6.0 | 0.00 | 0.00 | 0.00 | 80 | 1013.8 |
| 20260905124551 | 80 | 215 | 2.0 | 5.0 | 0.00 | 0.00 | 0.00 | 81 | 1013.9 |
| 20260905124040 | 80 | 275 | 2.0 | 4.0 | 0.00 | 0.00 | 0.00 | 82 | 1013.9 |
| 20260905123540 | 80 | 247 | 1.0 | 4.0 | 0.00 | 0.00 | 0.00 | 82 | 1014.0 |
| 20260905123102 | 79 | 194 | 1.0 | 3.0 | 0.00 | 0.00 | 0.00 | 82 | 1014.0 |
| 20260905122541 | 79 | 315 | 1.0 | 4.0 | 0.00 | 0.00 | 0.00 | 84 | 1014.0 |
| 20260905122044 | 78 | 221 | 2.0 | 5.0 | 0.00 | 0.00 | 0.00 | 85 | 1013.9 |
| 20260905121558 | 78 | 239 | 2.0 | 5.0 | 0.00 | 0.00 | 0.00 | 85 | 1013.9 |
| 20260905121043 | 77 | 221 | 2.0 | 3.0 | 0.00 | 0.00 | 0.00 | 86 | 1013.9 |
| 20260905120540 | 77 | 213 | 1.0 | 3.0 | 0.00 | 0.00 | 0.00 | 87 | 1013.9 |
| 20260905120056 | 76 | 228 | 0.0 | 2.0 | 0.00 | 0.00 | 0.00 | 89 | 1013.9 |
| 20260905115540 | 75 | 236 | 1.0 | 2.0 | 0.00 | 0.00 | 0.00 | 89 | 1013.8 |
| 20260905115041 | 75 | 290 | 0.0 | 2.0 | 0.00 | 0.00 | 0.00 | 91 | 1013.8 |
| 20260905114600 | 74 | 0 | 0.0 | 2.0 | 0.00 | 0.00 | 0.00 | 92 | 1013.7 |
| 20260905114041 | 73 | 0 | 0.0 | 2.0 | 0.00 | 0.00 | 0.00 | 92 | 1013.6 |
| 20260905113541 | 73 | 0 | 0.0 | 2.0 | 0.00 | 0.00 | 0.00 | 92 | 1013.7 |
| 20260905113056 | 72 | 173 | 0.0 | 2.0 | 0.00 | 0.00 | 0.00 | 92 | 1013.5 |
| 20260905112541 | 72 | 0 | 0.0 | 0.0 | 0.00 | 0.00 | 0.00 | 92 | 1013.5 |
| 20260905112039 | 72 | 0 | 0.0 | 0.0 | 0.00 | 0.00 | 0.00 | 92 | 1013.4 |
| 20260905111604 | 72 | 0 | 0.0 | 0.0 | 0.00 | 0.00 | 0.00 | 92 | 1013.3 |
| 20260905111040 | 72 | 0 | 0.0 | 2.0 | 0.00 | 0.00 | 0.00 | 92 | 1013.2 |
| 20260905110539 | 72 | 0 | 0.0 | 2.0 | 0.00 | 0.00 | 0.00 | 92 | 1013.0 |
| 20260905110058 | 72 | 173 | 0.0 | 1.0 | 0.00 | 0.00 | 0.00 | 92 | 1013.0 |
| 20260905105539 | 72 | 173 | 1.0 | 2.0 | 0.00 | 0.00 | 0.00 | 92 | 1012.9 |
| 20260905105040 | 72 | 173 | 0.0 | 2.0 | 0.00 | 0.00 | 0.00 | 92 | 1012.9 |
| 20260905104610 | 72 | 173 | 0.0 | 2.0 | 0.00 | 0.00 | 0.00 | 92 | 1012.8 |
| 20260905104042 | 72 | 0 | 0.0 | 2.0 | 0.00 | 0.00 | 0.00 | 92 | 1012.7 |
| 20260905103539 | 72 | 173 | 0.0 | 1.0 | 0.00 | 0.00 | 0.00 | 92 | 1012.6 |
| 20260905103056 | 72 | 173 | 0.0 | 1.0 | 0.00 | 0.00 | 0.00 | 92 | 1012.6 |
| 20260905102540 | 72 | 173 | 1.0 | 2.0 | 0.00 | 0.00 | 0.00 | 92 | 1012.6 |
| 20260905102039 | 72 | 173 | 1.0 | 2.0 | 0.00 | 0.00 | 0.00 | 92 | 1012.6 |
| 20260905101557 | 72 | 166 | 0.0 | 2.0 | 0.00 | 0.00 | 0.00 | 92 | 1012.6 |
| 20260905101040 | 72 | 0 | 0.0 | 2.0 | 0.00 | 0.00 | 0.00 | 92 | 1012.7 |
| 20260905100539 | 73 | 138 | 0.0 | 2.0 | 0.00 | 0.00 | 0.00 | 91 | 1012.7 |
| 20260905100058 | 73 | 0 | 0.0 | 2.0 | 0.00 | 0.00 | 0.00 | 91 | 1012.7 |
| 20260905095540 | 73 | 0 | 0.0 | 2.0 | 0.00 | 0.00 | 0.00 | 91 | 1012.7 |
| 20260905095039 | 73 | 138 | 0.0 | 1.0 | 0.00 | 0.00 | 0.00 | 91 | 1012.6 |
| 20260905094553 | 73 | 138 | 0.0 | 1.0 | 0.00 | 0.00 | 0.00 | 91 | 1012.7 |
| 20260905094039 | 73 | 138 | 0.0 | 1.0 | 0.00 | 0.00 | 0.00 | 91 | 1012.7 |
| 20260905093540 | 73 | 138 | 1.0 | 1.0 | 0.00 | 0.00 | 0.00 | 91 | 1012.7 |
| 20260905093055 | 73 | 138 | 1.0 | 1.0 | 0.00 | 0.00 | 0.00 | 91 | 1012.7 |
| 20260905092542 | 73 | 138 | 1.0 | 2.0 | 0.00 | 0.00 | 0.00 | 90 | 1012.7 |
| 20260905092039 | 73 | 130 | 0.0 | 2.0 | 0.00 | 0.00 | 0.00 | 90 | 1012.8 |
| 20260905091608 | 73 | 0 | 0.0 | 2.0 | 0.00 | 0.00 | 0.00 | 90 | 1012.8 |
| 20260905091040 | 74 | 0 | 0.0 | 0.0 | 0.00 | 0.00 | 0.00 | 90 | 1012.9 |
| 20260905090539 | 74 | 0 | 0.0 | 1.0 | 0.00 | 0.00 | 0.00 | 91 | 1012.9 |